Location: Boitzum
(52.1496°N, 9.6943°E)
Time: 00:05:01
(UTC+00:00)

AQUARIUS - Pass Details

Date: 13 January 2026
Orbit: 633 x 636 km, 98.0° (Epoch: 17 February)

Event Time Altitude Azimuth Distance (km) Brightness Sun altitude
Rises 06:12:24 0° 15° (NNE) 2,949 7.5 -10.6°
Reaches altitude 10° 06:14:37 10° 16° (NNE) 2,035 6.7 -10.3°
Maximum altitude 06:19:04 79° 103° (ESE) 653 4.3 -9.6°
Drops below altitude 10° 06:23:28 10° 192° (SSW) 2,017 6.9 -9.0°
Sets 06:25:39 0° 193° (SSW) 2,920 7.7 -8.7°
